[[{"header":{"parameterUnit":"m.s-1","parameterCategory":1,"la1":30.2992,"la2":30.254,"lo1":-89.0895,"lo2":-89.0443,"dy":0.0025,"dx":0.0025,"nx":19,"ny":19,"refTime":"2026-03-29T21:00:00:Z","depth":0,"parameterNumber":2,"parameterNumberName":"U-component_of_WINDS"},"data":[0,0,0,-5.6187,-5.6189,-5.6246,-5.6246,-5.6372,-5.6373,0,0,0,0,0,0,0,0,0,0,0,-5.6201,-5.6203,-5.6187,-5.6189,-5.6246,-5.6246,-5.6372,-5.6373,0,0,0,0,0,0,0,0,0,0,0,-5.62,-5.6203,-5.6205,-5.619,-5.6246,-5.6246,-5.6371,-5.631,0,0,0,0,0,0,0,0,0,0,-5.6245,-5.6288,-5.6202,-5.6205,-5.619,-5.6246,-5.6246,-5.6306,-5.6313,-5.6368,0,-5.6424,0,-5.6401,-5.6385,-5.6386,0,0,0,-5.6166,-5.6282,-5.6269,-5.6205,-5.6191,-5.6246,-5.6214,-5.6309,-5.6318,-5.6379,-5.6426,-5.6429,-5.6403,-5.6386,-5.6387,-5.6777,-5.678,0,0,-5.6163,-5.6228,-5.6264,-5.6277,-5.627,-5.6213,-5.6216,-5.6314,-5.637,-5.6426,-5.6431,-5.6405,-5.6387,-5.6389,-5.6774,-5.6778,0,0,0,-5.617,-5.6227,-5.6211,-5.6273,-5.6279,-5.6215,-5.6219,-5.6365,-5.6354,-5.6432,-5.6407,-5.6388,-5.6391,-5.6771,-5.6776,-5.698,0,0,0,-5.6167,-5.623,-5.6211,-5.6251,-5.6278,-5.6323,-5.6269,-5.6348,-5.6357,-5.6406,-5.6388,-5.6392,-5.6768,-5.6774,-5.6968,-5.7066,0,0,0,-5.6187,-5.6232,-5.6251,-5.6255,-5.6281,-5.632,-5.6314,-5.6348,-5.6343,-5.6386,-5.6393,-5.6766,-5.6773,-5.6956,-5.7047,-5.7186,0,0,0,-5.6227,-5.6433,-5.6256,-5.6477,-5.6282,-5.6447,-5.6312,-5.6432,-5.6494,-5.6389,-5.6768,-5.6775,-5.6953,-5.7035,-5.7174,-5.7312,-5.7377,0,0,-5.6523,-5.6472,-5.6596,-5.6439,-5.6652,-5.6433,-5.6676,-5.6671,-5.6617,-5.6727,-5.6736,-5.6972,-5.7045,-5.7183,-5.7719,-5.7771,0,0,0,-5.6712,-5.6802,-5.6845,-5.6906,-5.6908,-5.6916,-5.6868,-5.6866,-5.6956,-5.6686,-5.7059,-5.7101,-5.7179,-5.7242,-5.7286,-5.7347,-5.6808,-5.6807,-5.6807,-5.7223,-5.7141,-5.7342,-5.7268,-5.733,-5.7278,-5.7321,-5.7309,-5.721,-5.73,-5.7331,-5.7666,-5.7743,-5.7775,-5.7841,-5.74,-5.7401,-5.7401,-5.7402,-5.7647,-5.7761,-5.7625,-5.777,-5.7684,-5.7805,-5.7765,-5.769,-5.7791,-5.7636,-5.7701,-5.7536,-5.7834,-5.7887,-5.7417,-5.7414,-5.7412,-5.7411,-5.741,-5.797,-5.801,-5.8005,-5.8085,-5.8157,-5.8076,-5.8179,-5.8097,-5.8022,-5.8086,-5.8109,-5.8105,-5.8089,-5.8103,-5.8105,-5.8106,-5.8107,-5.8108,-5.8108,-5.8305,-5.8293,-5.8389,-5.8409,-5.8437,-5.8465,-5.8418,-5.8444,-5.8452,-5.8384,-5.8384,-5.8275,-5.7879,-5.778,-5.8126,-5.8123,-5.8121,-5.8119,-5.8118,-5.8759,-5.8644,-5.8793,-5.8822,-5.8839,-5.8915,-5.8811,-5.8872,-5.8882,-5.8936,-5.8815,-5.8536,-5.8477,-5.8441,-5.8358,-5.8832,-5.8832,-5.8832,-5.8833,-5.903,-5.8992,-5.9125,-5.9177,-5.9219,-5.914,-5.9312,-5.9278,-5.9224,-5.9226,-5.9146,-5.903,-5.8998,-5.8957,-5.8911,-5.8831,-5.9416,-5.9417,-5.9417,-5.9303,-5.9267,-5.9427,-5.9373,-5.9381,-5.939,-5.9548,-5.9613,-5.9529,-5.9439,-5.9225,-5.92,-5.9012,-5.8955,-5.8857,-5.8786,-5.8639,0,0]},{"header":{"parameterUnit":"m.s-1","parameterCategory":1,"la1":30.2992,"la2":30.254,"lo1":-89.0895,"lo2":-89.0443,"dy":0.0025,"dx":0.0025,"nx":19,"ny":19,"refTime":"2026-03-29T21:00:00:Z","depth":0,"parameterNumber":3,"parameterNumberName":"V-component_of_WINDS"},"data":[0,0,0,1.4547,1.4545,1.4458,1.4457,1.4387,1.4386,0,0,0,0,0,0,0,0,0,0,0,1.4595,1.4596,1.4547,1.4545,1.4458,1.4457,1.4387,1.4386,0,0,0,0,0,0,0,0,0,0,0,1.4595,1.4596,1.4596,1.4545,1.4458,1.4457,1.4387,1.4438,0,0,0,0,0,0,0,0,0,0,1.4516,1.4583,1.4596,1.4596,1.4545,1.4458,1.4457,1.444,1.4435,1.4443,0,1.4455,0,1.442,1.4384,1.4384,0,0,0,1.4528,1.4588,1.4543,1.4596,1.4544,1.4459,1.4493,1.4437,1.4431,1.4437,1.4453,1.4449,1.4418,1.4384,1.4384,1.4482,1.4484,0,0,1.4533,1.4592,1.4547,1.4541,1.4555,1.4496,1.449,1.4433,1.4455,1.4453,1.4447,1.4417,1.4384,1.4383,1.4481,1.4483,0,0,0,1.4558,1.4597,1.4552,1.4545,1.4526,1.4493,1.4487,1.4458,1.4439,1.4446,1.4416,1.4383,1.4383,1.448,1.4482,1.4601,0,0,0,1.456,1.4611,1.4556,1.4591,1.4528,1.449,1.4514,1.4443,1.4434,1.4417,1.4383,1.4383,1.4478,1.4481,1.4595,1.4648,0,0,0,1.4593,1.4614,1.461,1.4594,1.4559,1.449,1.4467,1.4439,1.4417,1.4384,1.4382,1.4477,1.448,1.4589,1.4638,1.4692,0,0,0,1.4646,1.4717,1.4613,1.468,1.456,1.4564,1.4466,1.4467,1.4452,1.4383,1.4478,1.4482,1.4587,1.4633,1.4687,1.4749,1.478,0,0,1.4768,1.4733,1.4769,1.4673,1.4711,1.4573,1.4628,1.4559,1.4503,1.4493,1.4495,1.4597,1.4638,1.4691,1.4933,1.4958,0,0,0,1.4828,1.4854,1.4851,1.484,1.4789,1.4751,1.4667,1.4642,1.463,1.4509,1.4628,1.4651,1.468,1.4707,1.4729,1.4751,1.4496,1.4496,1.4496,1.5086,1.5009,1.5063,1.4978,1.4968,1.4882,1.4868,1.482,1.4745,1.4775,1.4772,1.4928,1.4962,1.4977,1.5001,1.4798,1.4798,1.4798,1.4799,1.5259,1.5285,1.5185,1.5202,1.5122,1.5135,1.5056,1.5003,1.5006,1.4923,1.4945,1.4862,1.5007,1.5024,1.4807,1.4806,1.4805,1.4804,1.4803,1.5421,1.542,1.5388,1.5365,1.5357,1.5268,1.5275,1.5201,1.5132,1.5154,1.5143,1.5141,1.5131,1.5154,1.5154,1.5155,1.5155,1.5156,1.5156,1.5601,1.5561,1.5575,1.5529,1.5513,1.5484,1.54,1.5382,1.5345,1.5291,1.5291,1.5215,1.5035,1.4992,1.5164,1.5163,1.5162,1.5161,1.516,1.5806,1.5748,1.5771,1.5756,1.5696,1.5695,1.56,1.5573,1.5548,1.5555,1.5475,1.5353,1.5313,1.5295,1.5259,1.549,1.549,1.549,1.549,1.5944,1.5916,1.5923,1.5904,1.5876,1.5794,1.5825,1.5762,1.5687,1.5668,1.5624,1.557,1.5555,1.5523,1.5501,1.5466,1.5744,1.5744,1.5744,1.6066,1.6033,1.6072,1.5998,1.5946,1.5905,1.5932,1.5916,1.5819,1.5753,1.5652,1.5641,1.5553,1.5527,1.546,1.5427,1.5362,0,0]}]]